Simultaneous Nadir Overpasses (SNOs) Predictions

Prediction of SNOs between METOP-A and TERRA Satellite Orbit:

Table of predicted SNOs for the next 14.0 days since TLE Epoch: 9/28/2012
Index Date (METOP-A) Time (METOP-A) METOP-A Lat,Lon Date (TERRA) Time (TERRA) TERRA Lat,Lon Distance(km) Time Diff (sec)
1 09/29/2012 21:10:56 81.31, -91.05 09/29/2012 21:11:46 81.31, -90.89 2.73 50
2 09/29/2012 22:01:35 -81.32, 76.97 09/29/2012 22:01:12 -81.33, 77.05 1.56 23
3 10/02/2012 16:45:15 81.31, -24.51 10/02/2012 16:45:58 81.31, -24.46 0.91 43
4 10/02/2012 17:35:54 -81.32, 143.56 10/02/2012 17:35:24 -81.33, 143.50 1.18 30
5 10/05/2012 12:19:31 81.31, 42.18 10/05/2012 12:20:08 81.32, 42.19 0.58 37
6 10/05/2012 13:10:11 -81.32,-150.09 10/05/2012 13:09:35 -81.32,-150.22 2.16 36
7 10/08/2012 07:53:47 81.32, 108.64 10/08/2012 07:54:19 81.32, 108.67 0.90 32
8 10/08/2012 08:44:27 -81.32, -83.59 10/08/2012 08:43:46 -81.32, -83.72 2.21 41
9 10/11/2012 03:28:02 81.31, 174.85 10/11/2012 03:28:30 81.31, 174.98 2.28 28




NCC Satellite Simultaneous Nadir Overpasses (SNOs) Prediction Service
